Weather observations for the past three days for
Tuscaloosa Regional Airport
Imperial (Metric)
Date Time (cdt) Wind (mph) Vis. (mi.) Weather Sky Cond. Temperature (ºF) Relative Humidity Wind Chill (°F) Heat Index (°F) Pressure Precipitation (in)
Air Dwpt 6 hour altimeter (in) sea level (mb) 1 hr 3 hr 6 hr
Max. Min.
15 03:53 N 3 10.00 Fair CLR 75 73 94% 73 30.05 1017.4
15 02:53 Calm 8.00 Fair CLR 73.9 73 97% 30.05 1017.3
15 01:53 SW 5 8.00 Fair CLR 73.9 73 97% 30.05 1017.4
15 00:53 SW 6 8.00 Fair CLR 75 73.9 79 75 96% 73 30.07 1018.1
14 23:53 S 5 8.00 Fair CLR 75.9 75 97% 75 30.08 1018.3
14 22:53 Calm 8.00 Fair CLR 75.9 75 97% 75 30.08 1018.3
14 21:53 Calm 9.00 Fair CLR 75.9 75 97% 75 30.08 1018.2
14 20:53 Calm 10.00 Fair CLR 75.9 73.9 94% 75 30.07 1018.1
14 19:53 Calm 10.00 Fair CLR 78.1 73.9 87% 81 30.06 1017.8
14 18:53 S 6 10.00 Fair CLR 79 73.9 98.1 79 85% 83 30.06 1017.8 0.01
14 17:53 NW 3 10.00 A Few Clouds FEW042 80.1 73 79% 84 30.06 1017.5 0.01
14 16:53 NW 7 10.00 Light Rain FEW065 SCT080 OVC100 82 73 74% 87 30.08 1018.5
14 15:53 SW 16 10.00 Overcast OVC070 87.1 69.1 55% 91 30.07 1017.9
14 14:53 Calm 10.00 Fair CLR 95 64.9 37% 98 30.06 1017.7
14 13:53 Vrbl 3 10.00 Fair CLR 96.1 68 40% 101 30.08 1018.2
14 12:53 SW 6 10.00 Fair CLR 93.9 72 93.9 75.9 49% 102 30.11 1019.3
14 11:53 Vrbl 3 10.00 Fair CLR 91.9 73.9 56% 102 30.13 1020.2
14 10:53 Calm 9.00 Fair CLR 88 75 66% 98 30.14 1020.4
14 09:53 SW 3 8.00 Fair CLR 84.9 73.9 70% 92 30.14 1020.4
14 08:53 SW 3 8.00 Fair CLR 82.9 73 72% 89 30.15 1020.7
14 07:53 Calm 8.00 Fair CLR 79 73 82% 82 30.15 1020.6
14 06:53 Calm 7.00 Fair CLR 75.9 73 78.1 73 91% 76 30.14 1020.3
14 05:53 Calm 7.00 Fair CLR 73 72 96% 30.12 1019.6
14 04:53 Calm 9.00 Fair CLR 73.9 72 94% 30.11 1019.3
14 03:53 Calm 10.00 Fair CLR 75.9 72 88% 76 30.11 1019.2
14 02:53 Calm 10.00 Fair CLR 75.9 72 88% 76 30.1 1019.1
14 01:53 SW 3 9.00 Fair CLR 75.9 73.9 94% 75 30.11 1019.5
14 00:53 Calm 10.00 Fair CLR 77 73 90 75.9 88% 78 30.12 1019.7
13 23:53 Calm 10.00 Fair CLR 77 73.9 90% 78 30.13 1020.1
13 22:53 Calm 10.00 Fair CLR 80.1 73.9 82% 85 30.13 1020.1
13 21:53 Calm 10.00 A Few Clouds FEW120 80.1 73.9 82% 85 30.13 1020.1
13 20:53 Calm 10.00 Fair CLR 82 73.9 77% 88 30.11 1019.5
13 19:53 Calm 10.00 Fair CLR 86 73 65% 93 30.11 1019.3
13 18:53 S 3 10.00 A Few Clouds FEW100 90 72 97 90 56% 97 30.1 1019.0
13 17:53 SW 6 10.00 Fair CLR 93 68 44% 97 30.1 1019.0
13 16:53 SW 7 10.00 Fair CLR 96.1 64.9 36% 99 30.09 1018.7
13 15:53 S 5 10.00 Fair CLR 93.9 66 40% 97 30.11 1019.3
13 14:53 Vrbl 7 10.00 Fair CLR 96.1 64.9 36% 99 30.13 1020.0
13 13:53 SW 8 10.00 Fair CLR 96.1 66 37% 100 30.14 1020.5
13 12:53 SW 6 10.00 Partly Cloudy SCT110 93.9 62.1 96.1 73.9 35% 95 30.16 1021.1
13 11:53 Calm 10.00 Fair CLR 93 68 44% 97 30.17 1021.5
13 10:53 SW 5 10.00 Fair CLR 88 72 59% 95 30.18 1021.8
13 09:53 Calm 9.00 Fair CLR 86 72 63% 92 30.19 1021.9
13 08:53 Calm 9.00 Fair CLR 82.9 71.1 67% 88 30.19 1021.9
13 07:53 Calm 8.00 Fair CLR 79 72 79% 82 30.18 1021.8
13 06:53 Calm 8.00 Fair CLR 73.9 71.1 77 70 91% 30.16 1021.0
13 05:53 Calm 6.00 Fog/Mist CLR 70 69.1 97% 30.15 1020.6
13 04:53 Calm 9.00 Fair CLR 72 70 94% 30.13 1019.8
13 03:53 Calm 9.00 Fair CLR 72 71.1 97% 30.1 1019.1
13 02:53 Calm 10.00 Fair CLR 73.9 70 88% 30.1 1018.8
13 01:53 Calm 10.00 Fair CLR 75 71.1 88% 75 30.1 1019.0
13 00:53 NW 3 10.00 A Few Clouds FEW090 77 71.1 91 75.9 82% 79 30.11 1019.4
12 22:53 Calm 10.00 Overcast OVC090 79 71.1 77% 82 30.11 1019.4
12 21:53 Calm 10.00 Mostly Cloudy BKN090 BKN120 80.1 71.1 74% 84 30.1 1019.0
12 20:53 Calm 10.00 Mostly Cloudy BKN095 BKN110 82 70 67% 86 30.08 1018.5
12 19:53 Calm 10.00 Mostly Cloudy BKN095 84 70 63% 88 30.07 1018.0
12 18:53 Calm 10.00 Fair CLR 91 69.1 96.1 90 49% 96 30.05 1017.3
12 17:53 S 3 10.00 Fair CLR 93.9 61 33% 94 30.04 1016.8
12 16:53 SE 5 10.00 Fair CLR 93.9 60.1 32% 94 30.03 1016.7
12 15:53 W 6 10.00 Fair CLR 93.9 60.1 32% 94 30.04 1017.1
12 14:53 S 6 10.00 Fair CLR 93.9 61 33% 94 30.06 1017.7
12 13:53 Calm 10.00 A Few Clouds FEW085 93.9 62.1 35% 95 30.08 1018.4
12 12:53 Vrbl 6 10.00 Fair CLR 93.9 64 93.9 71.1 37% 96 30.1 1018.9
12 11:53 S 6 10.00 Fair CLR 91.9 63 38% 93 30.11 1019.5
12 10:53 E 3 10.00 Fair CLR 90 64.9 44% 92 30.11 1019.4
12 09:53 Calm 10.00 Fair CLR 84.9 70 61% 89 30.11 1019.4
12 08:53 Calm 9.00 Fair CLR 82 69.1 65% 85 30.1 1019.1
12 07:53 Calm 10.00 Fair CLR 78.1 66.9 69% 80 30.09 1018.5
12 06:53 Calm 9.00 Fair CLR 71.1 66.9 75 66.9 87% 30.07 1018.0
12 05:53 Calm 8.00 Fair CLR 68 66 93% 30.06 1017.6
12 04:53 Calm 10.00 Fair CLR 70 66.9 90% 30.05 1017.2
Date Time (cdt) Wind (mph) Vis. (mi.) Weather Sky Cond. Air Dwpt Max. Min. Relative Humidity Wind Chill (°F) Heat Index (°F) altimeter (in) sea level (mb) 1 hr 3 hr 6 hr
6 hour
Temperature (ºF) Pressure Precipitation (in)